This demonstration page uses our WeatherBlox Daily Observations layout. Learn more.

Left ArrowRight Arrow

39.51506, -84.39828

Hourly Observations for March 11, 2016

Temp ( °F °C ) Dew Point ( °F °C ) Humidity (%) Winds ( mph kmh ) Pressure ( in mb ) Visibility ( mi km ) Precip ( " mm )
12:15 am 00:15 Cloudy 52 11 49 9.3 89 89 N 7 11 30.18 1022 10 16 0.00 0.00
12:35 am 00:35 Cloudy 52 11 49 9.2 89 89 N 3 6 30.15 1021 10 16 0.00 0.00
12:55 am 00:55 Cloudy 52 11 49 9.2 89 89 N 9 15 30.18 1022 7 11 0.00 0.00
1:15 am 01:15 Cloudy 51 10.3 47 8.2 87 87 N 8 13 30.18 1022 7 11 0.00 0.00
1:35 am 01:35 Cloudy 52 11 47 8.5 85 85 N 6 9 30.18 1022 10 16 0.00 0.00
1:55 am 01:55 Cloudy 52 11 47 8.5 85 85 NNE 5 7 30.18 1022 10 16 0.00 0.00
2:15 am 02:15 Cloudy 51 10.3 46 8 86 86 N 8 13 30.18 1022 10 16 0.00 0.00
2:35 am 02:35 Mostly Cloudy 50 10.2 46 7.7 85 85 N 5 7 30.18 1022 10 16 0.00 0.00
2:55 am 02:55 Partly Cloudy 49 9.6 45 7.2 85 85 N 3 6 30.18 1022 10 16 0.00 0.00
3:15 am 03:15 Clear 49 9.6 45 7.2 85 85 N 7 11 30.18 1022 10 16 0.00 0.00
3:35 am 03:35 Clear 49 9.6 45 7.1 85 85 N 8 13 30.21 1023 10 16 0.00 0.00
3:55 am 03:55 Clear 49 9.6 45 7.1 85 85 NNE 6 9 30.21 1023 10 16 0.00 0.00
4:15 am 04:15 Partly Cloudy 49 9.6 45 7.2 85 85 N 8 13 30.21 1023 10 16 0.00 0.00
4:35 am 04:35 Mostly Cloudy 49 9.6 45 7.2 85 85 NNE 8 13 30.21 1023 10 16 0.00 0.00
4:55 am 04:55 Cloudy 49 9.6 45 7.3 86 86 NNE 8 13 30.21 1023 7 11 0.00 0.00
5:15 am 05:15 Cloudy with Mist and Fog 49 9.6 46 7.5 87 87 NE 7 11 30.21 1023 5 8 0.00 0.00
5:35 am 05:35 Cloudy with Mist and Fog 49 9.6 46 7.5 87 87 NNE 7 11 30.24 1024 5 8 0.00 0.00
5:55 am 05:55 Cloudy with Mist and Fog 49 9.6 46 7.5 87 87 NNE 7 11 30.24 1024 5 8 0.00 0.00
6:15 am 06:15 Cloudy with Mist and Fog 49 9.6 46 7.5 87 87 N 6 9 30.27 1025 5 8 0.00 0.00
6:35 am 06:35 Cloudy with Mist and Fog 49 9.6 46 7.6 87 87 Calm 30.27 1025 5 8 0.00 0.00
6:55 am 06:55 Cloudy with Mist and Fog 49 9.6 46 7.6 87 87 Calm 30.27 1025 5 8 0.00 0.00
7:15 am 07:15 Mostly Cloudy with Mist and Fog 49 9.6 46 7.6 87 87 Calm 30.30 1026 4 6 0.00 0.00
7:35 am 07:35 Mostly Cloudy with Mist and Fog 49 9.6 46 7.6 87 87 Calm 30.30 1026 4 6 0.00 0.00
7:55 am 07:55 Partly Cloudy with Mist and Fog 49 9.6 45 7.2 85 85 NNE 8 13 30.30 1026 5 8 0.00 0.00
8:15 am 08:15 Partly Cloudy with Mist and Fog 49 9.6 45 7.1 85 85 NNE 8 13 30.30 1026 5 8 0.00 0.00
8:35 am 08:35 Cloudy 49 9.6 44 6.6 82 82 NE 13 20 30.33 1027 7 11 0.00 0.00
8:55 am 08:55 Cloudy 49 9.6 44 6.4 81 81 NE 14 22 30.33 1027 10 16 0.00 0.00
9:15 am 09:15 Cloudy 49 9.6 43 6.1 79 79 NE 12 19 30.33 1027 10 16 0.00 0.00
9:35 am 09:35 Cloudy 49 9.6 43 6 78 78 NE 10 17 30.33 1027 10 16 0.00 0.00
9:55 am 09:55 Cloudy 49 9.6 43 6 78 78 NE 9 15 30.33 1027 10 16 0.00 0.00
10:15 am 10:15 Cloudy 49 9.6 42 5.8 77 77 E 12 19 30.33 1027 10 16 0.00 0.00
10:35 am 10:35 Cloudy 49 9.6 42 5.8 77 77 ENE 9 15 30.33 1027 10 16 0.00 0.00
10:55 am 10:55 Cloudy 50 9.9 42 5.6 75 75 E 8 13 30.33 1027 10 16 0.00 0.00
11:15 am 11:15 Cloudy 52 11 43 6.2 73 73 ENE 9 15 30.36 1028 10 16 0.00 0.00
11:35 am 11:35 Mostly Cloudy 52 11 43 6.2 73 73 ENE 9 15 30.33 1027 10 16 0.00 0.00
11:55 am 11:55 Partly Cloudy 55 12.5 45 7.1 70 70 ENE 14 22 30.33 1027 10 16 0.00 0.00
12:15 pm 12:15 Partly Cloudy 55 12.5 44 6.9 69 69 E 9 15 30.33 1027 10 16 0.00 0.00
12:35 pm 12:35 Partly Cloudy 55 12.5 44 6.6 68 68 ENE 12 19 30.33 1027 10 16 0.00 0.00
12:55 pm 12:55 Sunny 55 12.5 43 6.2 66 66 ENE 6 9 30.36 1028 10 16 0.00 0.00
1:15 pm 13:15 Sunny 55 12.5 43 5.9 64 64 NE 6 9 30.36 1028 10 16 0.00 0.00
1:35 pm 13:35 Sunny 55 12.6 43 5.9 64 64 ENE 6 9 30.36 1028 10 16 0.00 0.00
1:55 pm 13:55 Sunny 55 12.7 43 5.9 64 64 E 5 7 30.36 1028 7 11 0.00 0.00
2:15 pm 14:15 Sunny 56 13.6 44 6.6 63 63 ENE 7 11 30.33 1027 10 16 0.00 0.00
2:35 pm 14:35 Sunny 57 13.8 43 6.1 60 60 E 6 9 30.33 1027 10 16 0.00 0.00
2:55 pm 14:55 Sunny 57 13.8 43 6.1 60 60 NE 6 9 30.33 1027 10 16 0.00 0.00
3:15 pm 15:15 Sunny 57 13.9 43 5.9 59 59 ENE 7 11 30.33 1027 10 16 0.00 0.00
3:35 pm 15:35 Sunny 59 15 44 6.7 58 58 ENE 10 17 30.33 1027 10 16 0.00 0.00
3:55 pm 15:55 Sunny 60 15.3 44 6.6 56 56 NE 5 7 30.33 1027 10 16 0.00 0.00
4:15 pm 16:15 Sunny 60 15.3 43 6 54 54 E 7 11 30.33 1027 10 16 0.00 0.00
4:35 pm 16:35 Sunny 60 15.3 44 6.4 56 56 NE 7 11 30.33 1027 10 16 0.00 0.00
4:55 pm 16:55 Sunny 60 15.3 44 6.4 56 56 E 5 7 30.33 1027 10 16 0.00 0.00
5:15 pm 17:15 Sunny 60 15.3 44 6.6 56 56 ENE 9 15 30.30 1026 10 16 0.00 0.00
5:35 pm 17:35 Sunny 57 13.8 43 6.3 61 61 E 7 11 30.30 1026 10 16 0.00 0.00
5:55 pm 17:55 Sunny 57 13.8 44 6.5 62 62 E 6 9 30.30 1026 10 16 0.00 0.00
6:15 pm 18:15 Sunny 57 13.8 45 7.3 65 65 ENE 8 13 30.30 1026 10 16 0.00 0.00
6:35 pm 18:35 Sunny 55 12.5 44 6.6 68 68 ENE 7 11 30.30 1026 10 16 0.00 0.00
6:55 pm 18:55 Clear 55 12.5 44 6.9 69 69 E 5 7 30.30 1026 10 16 0.00 0.00
7:15 pm 19:15 Clear 55 12.5 44 6.7 68 68 ENE 3 6 30.30 1026 10 16 0.00 0.00
7:35 pm 19:35 Clear 54 12 46 7.6 75 75 NNE 3 6 30.30 1026 10 16 0.00 0.00
7:55 pm 19:55 Clear 49 9.6 44 6.7 82 82 Calm 30.30 1026 10 16 0.00 0.00
8:15 pm 20:15 Clear 49 9.6 45 7 84 84 Calm 30.30 1026 10 16 0.00 0.00
8:35 pm 20:35 Clear 49 9.6 45 7.1 85 85 Calm 30.30 1026 10 16 0.00 0.00
8:55 pm 20:55 Clear 47 8.2 43 6 86 86 N 3 6 30.30 1026 10 16 0.00 0.00
9:15 pm 21:15 Clear 46 8 43 6 87 87 NE 3 6 30.30 1026 10 16 0.00 0.00
9:35 pm 21:35 Clear 44 6.8 41 5 88 88 NNE 6 9 30.30 1026 10 16 0.00 0.00
9:55 pm 21:55 Clear 49 9.6 45 7.2 85 85 NE 7 11 30.30 1026 10 16 0.00 0.00
10:15 pm 22:15 Clear 49 9.6 44 6.5 81 81 NE 7 11 30.30 1026 10 16 0.00 0.00
10:35 pm 22:35 Clear 49 9.6 44 6.8 83 83 NNE 3 6 30.30 1026 10 16 0.00 0.00
10:55 pm 22:55 Clear 49 9.3 44 6.7 84 84 NNE 5 7 30.30 1026 10 16 0.00 0.00
11:15 pm 23:15 Clear 47 8.2 43 5.9 86 86 NNE 6 9 30.30 1026 10 16 0.00 0.00
11:35 pm 23:35 Clear 47 8.2 43 6 86 86 NNE 6 9 30.30 1026 10 16 0.00 0.00
11:55 pm 23:55 Clear 47 8.2 42 5.8 85 85 NNE 5 7 30.30 1026 10 16 0.00 0.00

Powered by AerisWeather